IW2NIA-3 Weather Reports


Display with metric or nautical units.
time (UTC)temp
F
wind
direction
speed
MPH
gust
MPH
rain 1hr
in
rain 24hr
in
rain mn
in
humidity
%
barometer
mb
20260505203335 55 204 0.0 4.0 0.01 0.71 0.71 96 1011.9
20260505201845 55 171 1.0 4.0 0.01 0.71 0.71 96 1012.0
20260505200336 55 182 3.0 5.0 0.01 0.71 0.71 96 1012.0
20260505194828 55 167 3.0 7.0 0.00 0.70 0.70 96 1011.9
20260505193341 55 186 1.0 4.0 0.00 0.70 0.70 96 1011.8
20260505191834 55 161 1.0 4.0 0.00 0.70 0.70 96 1011.8
20260505190342 55 161 0.0 3.0 0.01 0.70 0.70 96 1011.7
20260505184829 55 182 3.0 7.0 0.02 0.70 0.70 96 1011.4
20260505183346 55 179 1.0 6.0 0.06 0.70 0.70 95 1011.4
20260505181837 55 154 1.0 5.0 0.13 0.70 0.70 95 1011.3
20260505180330 55 186 2.0 4.0 0.13 0.69 0.69 95 1011.4
20260505174839 55 138 6.0 7.0 0.12 0.68 0.68 95 1011.4
20260505173330 55 131 3.0 4.0 0.09 0.64 0.64 95 1011.4
20260505171846 55 180 2.0 7.0 0.03 0.57 0.57 95 1011.4
20260505170341 55 194 1.0 10.0 0.02 0.56 0.56 95 1011.5
20260505164835 56 123 2.0 7.0 0.03 0.56 0.56 95 1011.5
20260505163348 56 150 2.0 5.0 0.02 0.55 0.55 95 1011.5
20260505161841 56 136 5.0 9.0 0.01 0.54 0.54 95 1011.6
20260505160336 56 123 2.0 5.0 0.01 0.54 0.54 94 1011.6
20260505153342 56 136 5.0 6.0 0.01 0.53 0.53 94 1011.8
20260505151843 56 130 1.0 6.0 0.01 0.53 0.53 94 1011.7
20260505150340 56 122 3.0 6.0 0.01 0.53 0.53 94 1011.9
20260505140336 56 127 0.0 7.0 0.00 0.52 0.52 93 1012.0
20260505124848 55 113 2.0 6.0 0.00 0.52 0.52 93 1012.4
20260505123343 55 117 2.0 5.0 0.01 0.52 0.52 93 1012.4
20260505121838 55 118 0.0 4.0 0.02 0.52 0.52 93 1012.4
20260505120337 55 120 0.0 3.0 0.03 0.52 0.52 93 1012.4
20260505114846 55 63 2.0 3.0 0.04 0.52 0.52 93 1012.5
20260505113340 55 127 0.0 4.0 0.04 0.51 0.51 93 1012.6
20260505111835 55 28 1.0 4.0 0.04 0.50 0.50 93 1012.7
20260505110335 55 56 0.0 0.0 0.04 0.49 0.49 93 1012.8
20260505101845 55 68 2.0 3.0 0.06 0.47 0.47 92 1012.7
20260505100342 55 95 0.0 0.0 0.05 0.45 0.45 92 1012.8
20260505094839 56 95 0.0 2.0 0.06 0.43 0.43 92 1012.8
20260505093331 55 96 2.0 4.0 0.05 0.42 0.42 92 1012.8
20260505091830 55 44 3.0 7.0 0.04 0.41 0.41 92 1012.6
20260505090343 55 102 3.0 4.0 0.03 0.40 0.40 92 1012.7
20260505084835 55 101 3.0 7.0 0.00 0.37 0.37 92 1012.6
20260505083329 55 129 2.0 6.0 0.00 0.37 0.37 92 1012.4
20260505081826 55 70 4.0 6.0 0.01 0.37 0.37 93 1012.3
20260505080343 55 103 1.0 7.0 0.03 0.37 0.37 93 1012.2
20260505074838 55 51 5.0 10.0 0.07 0.37 0.37 93 1012.2
20260505073329 55 55 5.0 12.0 0.15 0.37 0.37 93 1012.1
20260505071827 55 81 4.0 10.0 0.25 0.36 0.36 92 1012.1
20260505070330 55 57 2.0 8.0 0.30 0.34 0.34 92 1012.2
20260505064840 55 28 3.0 6.0 0.29 0.31 0.31 91 1012.2
20260505063336 54 11 3.0 5.0 0.21 0.22 0.22 90 1012.3
20260505061845 55 335 2.0 5.0 0.10 0.11 0.11 90 1012.5
20260505060339 55 340 1.0 6.0 0.04 0.04 0.04 89 1012.4
20260505054841 55 327 6.0 9.0 0.02 0.02 0.02 89 1011.9
20260505053336 55 330 1.0 3.0 0.01 0.01 0.01 88 1011.9
20260505051827 55 331 0.0 3.0 0.01 0.01 0.01 87 1011.6
20260505050340 55 316 1.0 3.0 0.00 0.00 0.00 86 1011.6
20260505040325 56 10 0.0 0.0 0.00 0.00 0.00 82 1011.4
20260505034828 56 10 0.0 0.0 0.00 0.00 0.00 81 1011.5
20260505033344 56 10 0.0 0.0 0.00 0.00 0.00 79 1011.6
20260505031838 57 10 0.0 0.0 0.00 0.00 0.00 78 1011.7
20260505030334 57 11 0.0 0.0 0.00 0.00 0.00 77 1011.7
20260505024845 58 11 0.0 3.0 0.00 0.00 0.00 75 1011.9
20260505023341 58 11 0.0 1.0 0.00 0.00 0.00 74 1012.0
20260505021831 58 11 1.0 4.0 0.00 0.00 0.00 74 1012.1
20260505020343 58 350 0.0 2.0 0.00 0.00 0.00 73 1012.4
20260505014845 58 348 1.0 3.0 0.00 0.00 0.00 72 1012.5
20260505013339 58 346 3.0 4.0 0.00 0.00 0.00 72 1012.8
20260505011838 58 320 1.0 6.0 0.00 0.00 0.00 72 1012.9
20260505010332 58 317 3.0 5.0 0.00 0.00 0.00 71 1013.1
20260505004827 58 295 3.0 4.0 0.00 0.00 0.00 73 1013.4
20260505003339 59 318 3.0 6.0 0.00 0.00 0.00 76 1013.7
20260505001838 59 335 3.0 4.0 0.00 0.00 0.00 76 1013.8
20260505000343 59 348 1.0 4.0 0.00 0.00 0.00 76 1014.1
20260504234841 59 308 0.0 3.0 0.00 0.00 0.00 76 1014.3
20260504233331 59 309 0.0 4.0 0.00 0.00 0.00 76 1014.5
20260504231842 59 325 1.0 5.0 0.00 0.00 0.00 76 1014.7
20260504230340 59 348 0.0 0.0 0.00 0.00 0.00 76 1014.6
20260504224832 59 348 0.0 0.0 0.00 0.00 0.00 75 1014.8
20260504223340 59 348 0.0 0.0 0.00 0.00 0.00 73 1015.0
20260504221831 60 348 0.0 0.0 0.00 0.00 0.00 71 1015.0
20260504220328 60 348 0.0 2.0 0.00 0.00 0.00 71 1015.2
20260504214841 60 328 0.0 2.0 0.00 0.00 0.00 70 1015.3
20260504213333 61 328 0.0 0.0 0.00 0.00 0.00 69 1015.4
20260504211844 61 328 0.0 0.0 0.00 0.00 0.00 68 1015.5
20260504210335 61 325 2.0 3.0 0.00 0.00 0.00 67 1015.6
20260504204843 62 321 3.0 4.0 0.00 0.00 0.00 66 1015.6